DW2715 Weather Reports


Display with metric or nautical units.
time (UTC)temp
F
wind
direction
speed
MPH
gust
MPH
rain 1hr
in
rain 24hr
in
rain mn
in
humidity
%
barometer
mb
20260510225002 58 313 2.0 3.0 0.00 0.06 0.00 90 1011.7
20260510224502 58 313 2.0 3.0 0.00 0.06 0.00 90 1011.7
20260510224003 58 321 1.0 3.0 0.00 0.06 0.00 90 1011.7
20260510223503 58 325 0.0 2.0 0.00 0.06 0.00 90 1011.7
20260510223001 58 325 1.0 3.0 0.00 0.06 0.00 90 1011.7
20260510222502 58 325 1.0 3.0 0.00 0.06 0.00 90 1011.7
20260510222005 59 310 1.0 4.0 0.00 0.06 0.00 90 1011.7
20260510221502 59 309 2.0 4.0 0.00 0.06 0.00 90 1011.7
20260510221003 59 338 2.0 3.0 0.00 0.06 0.00 90 1011.7
20260510220002 59 328 0.0 4.0 0.00 0.06 0.00 90 1011.7
20260510215503 59 346 0.0 0.0 0.00 0.06 0.06 90 1011.8
20260510215003 59 346 0.0 0.0 0.00 0.06 0.06 90 1011.8
20260510214503 59 347 0.0 0.0 0.00 0.06 0.06 90 1011.8
20260510214003 59 348 0.0 0.0 0.00 0.06 0.06 90 1011.8
20260510213502 59 348 0.0 0.0 0.00 0.06 0.06 90 1011.9
20260510213002 59 348 0.0 0.0 0.00 0.06 0.06 90 1011.9
20260510212503 59 348 0.0 0.0 0.00 0.06 0.06 90 1011.9
20260510212002 59 348 0.0 0.0 0.00 0.06 0.06 89 1012.0
20260510211503 58 348 0.0 0.0 0.00 0.06 0.06 90 1012.0
20260510211002 59 347 0.0 0.0 0.01 0.06 0.06 90 1012.0
20260510210003 59 347 0.0 2.0 0.01 0.06 0.06 90 1012.1
20260510205502 59 315 1.0 2.0 0.01 0.06 0.06 90 1012.1
20260510205002 59 315 1.0 3.0 0.01 0.06 0.06 89 1012.1
20260510204503 59 315 2.0 3.0 0.01 0.06 0.06 89 1012.1
20260510204003 59 355 1.0 3.0 0.01 0.06 0.06 89 1012.1
20260510203002 59 347 0.0 3.0 0.01 0.06 0.06 89 1012.2
20260510201503 59 355 0.0 0.0 0.01 0.06 0.06 89 1012.2
20260510201002 59 355 0.0 0.0 0.00 0.05 0.05 89 1012.3
20260510195503 59 54 0.0 2.0 0.00 0.05 0.05 89 1012.3
20260510195003 59 54 0.0 2.0 0.00 0.05 0.05 89 1012.3
20260510194502 59 54 0.0 1.0 0.00 0.05 0.05 89 1012.2
20260510194003 59 54 0.0 1.0 0.00 0.05 0.05 89 1012.2
20260510193003 59 50 0.0 0.0 0.00 0.05 0.05 89 1012.2
20260510192503 59 50 0.0 0.0 0.00 0.05 0.05 89 1012.2
20260510191505 59 53 0.0 2.0 0.00 0.05 0.05 89 1012.2
20260510191004 59 53 0.0 2.0 0.00 0.05 0.05 89 1012.2
20260510190503 59 49 0.0 2.0 0.00 0.05 0.05 89 1012.1
20260510190005 59 42 0.0 4.0 0.00 0.05 0.05 89 1012.1
20260510185503 59 28 1.0 4.0 0.00 0.05 0.05 90 1012.0
20260510185003 59 67 2.0 4.0 0.00 0.05 0.05 90 1012.0
20260510184504 59 59 2.0 5.0 0.00 0.05 0.05 90 1012.1
20260510184003 59 355 2.0 5.0 0.00 0.05 0.05 90 1012.1
20260510183502 59 47 2.0 4.0 0.00 0.05 0.05 90 1012.1
20260510182504 59 40 2.0 5.0 0.00 0.05 0.05 89 1012.0
20260510182003 59 33 1.0 4.0 0.00 0.05 0.05 90 1012.1
20260510181504 59 20 0.0 4.0 0.00 0.05 0.05 90 1012.1
20260510180503 59 20 0.0 2.0 0.00 0.05 0.05 90 1012.0
20260510180004 59 20 0.0 2.0 0.00 0.05 0.05 90 1012.1
20260510175002 59 76 1.0 6.0 0.00 0.05 0.05 89 1012.1
20260510173956 59 57 1.0 5.0 0.00 0.05 0.05 90 1012.1
20260510172944 59 28 1.0 8.0 0.00 0.05 0.05 90 1012.2
20260510172440 60 5 1.0 3.0 0.00 0.05 0.05 90 1012.1
20260510171933 60 46 2.0 6.0 0.00 0.05 0.05 90 1012.2
20260510170930 60 86 1.0 4.0 0.00 0.05 0.05 89 1012.2
20260510170430 60 61 0.0 4.0 0.00 0.05 0.05 89 1012.2
20260510165930 60 77 0.0 2.0 0.00 0.05 0.05 89 1012.3
20260510165431 60 85 0.0 2.0 0.00 0.05 0.05 89 1012.4
20260510164930 60 103 0.0 2.0 0.00 0.05 0.05 89 1012.3
20260510164430 60 101 0.0 4.0 0.00 0.05 0.05 89 1012.4
20260510163931 60 101 0.0 4.0 0.00 0.05 0.05 89 1012.4
20260510163431 60 94 1.0 3.0 0.00 0.05 0.05 89 1012.4
20260510162931 60 94 1.0 4.0 0.01 0.05 0.05 89 1012.4
20260510161430 60 103 1.0 3.0 0.01 0.05 0.05 89 1012.4
20260510155930 60 140 2.0 8.0 0.01 0.05 0.05 88 1012.6
20260510155430 60 127 3.0 8.0 0.02 0.05 0.05 88 1012.6
20260510154926 60 144 4.0 12.0 0.02 0.05 0.05 88 1012.6
20260510154422 60 152 5.0 12.0 0.03 0.05 0.05 88 1012.6
20260510153922 61 152 3.0 12.0 0.04 0.05 0.05 88 1012.7
20260510153423 61 124 3.0 7.0 0.04 0.05 0.04 89 1012.7
20260510152922 61 120 4.0 9.0 0.03 0.04 0.04 88 1012.7
20260510152424 61 148 3.0 10.0 0.03 0.04 0.04 88 1012.7
20260510151922 62 107 2.0 10.0 0.03 0.04 0.04 88 1012.7
20260510151422 62 121 1.0 8.0 0.03 0.04 0.04 88 1012.7
20260510150922 62 90 1.0 6.0 0.03 0.04 0.04 88 1012.8
20260510150422 62 82 2.0 6.0 0.03 0.04 0.04 87 1012.8
20260510145923 62 130 2.0 7.0 0.03 0.04 0.04 87 1012.8
20260510145424 62 111 2.0 7.0 0.02 0.03 0.03 87 1012.8
20260510144922 62 158 2.0 7.0 0.02 0.02 0.02 87 1012.8
20260510144422 63 86 2.0 7.0 0.01 0.02 0.02 87 1012.8
20260510143922 63 104 2.0 6.0 0.00 0.01 0.01 87 1012.7
20260510143422 63 131 3.0 8.0 0.00 0.01 0.01 86 1012.7
20260510142922 63 121 3.0 8.0 0.00 0.01 0.01 86 1012.7
20260510142422 63 143 2.0 7.0 0.00 0.01 0.01 86 1012.7
20260510141916 63 98 2.0 7.0 0.00 0.01 0.01 86 1012.7
20260510140915 63 115 3.0 9.0 0.00 0.01 0.01 85 1012.6
20260510135913 63 119 3.0 7.0 0.00 0.01 0.01 84 1012.8
20260510135412 63 134 3.0 7.0 0.00 0.01 0.01 84 1012.8
20260510134913 63 160 4.0 8.0 0.00 0.01 0.01 84 1012.8
20260510134412 63 125 4.0 9.0 0.00 0.01 0.01 83 1012.9
20260510133912 63 94 3.0 9.0 0.00 0.01 0.01 83 1012.9
20260510133412 64 96 3.0 8.0 0.01 0.01 0.01 83 1012.9
20260510132913 64 128 4.0 8.0 0.01 0.01 0.01 82 1012.9
20260510132413 64 128 4.0 9.0 0.01 0.01 0.01 82 1013.0
20260510131912 64 152 4.0 9.0 0.01 0.01 0.01 82 1013.0
20260510131408 64 132 4.0 10.0 0.01 0.01 0.01 81 1013.0
20260510130908 64 108 4.0 10.0 0.01 0.01 0.01 81 1013.1
20260510130408 64 130 2.0 7.0 0.01 0.01 0.01 80 1013.2
20260510125408 64 119 1.0 7.0 0.01 0.01 0.01 79 1013.1
20260510124908 64 154 1.0 4.0 0.01 0.01 0.01 79 1013.2
20260510124408 65 138 1.0 6.0 0.01 0.01 0.01 77 1013.2
20260510123909 65 81 1.0 6.0 0.01 0.01 0.01 76 1013.2
20260510122409 65 143 1.0 7.0 0.00 0.00 0.00 73 1013.2
20260510121410 65 98 2.0 8.0 0.00 0.00 0.00 70 1013.4
20260510120906 65 150 0.0 4.0 0.00 0.00 0.00 69 1013.2
20260510120406 65 126 1.0 6.0 0.00 0.00 0.00 69 1013.3
20260510115903 65 90 3.0 7.0 0.00 0.00 0.00 68 1013.3
20260510115403 65 120 3.0 8.0 0.00 0.00 0.00 68 1013.3
20260510114902 66 116 2.0 8.0 0.00 0.00 0.00 68 1013.4
20260510114404 66 90 1.0 7.0 0.00 0.00 0.00 68 1013.4
20260510113903 66 48 1.0 7.0 0.00 0.00 0.00 69 1013.4
20260510113402 66 118 1.0 6.0 0.00 0.00 0.00 69 1013.5
20260510112858 66 88 1.0 6.0 0.00 0.00 0.00 70 1013.5
20260510112350 66 160 1.0 7.0 0.00 0.00 0.00 70 1013.5
20260510111847 66 116 1.0 7.0 0.00 0.00 0.00 71 1013.6
20260510110341 66 56 1.0 4.0 0.00 0.00 0.00 72 1013.7
20260510105841 65 119 1.0 6.0 0.00 0.00 0.00 73 1013.7
20260510104838 65 82 1.0 6.0 0.00 0.00 0.00 74 1013.8
20260510104335 65 110 1.0 4.0 0.00 0.00 0.00 74 1013.8
20260510103834 65 97 2.0 7.0 0.00 0.00 0.00 74 1013.8
20260510102332 65 94 1.0 8.0 0.00 0.00 0.00 75 1013.9
20260510101832 65 81 0.0 5.0 0.00 0.00 0.00 75 1014.0
20260510101332 65 49 0.0 0.0 0.00 0.00 0.00 76 1014.0
20260510100835 65 37 0.0 3.0 0.00 0.00 0.00 76 1014.0
20260510100331 65 87 1.0 4.0 0.00 0.00 0.00 76 1014.0
20260510095331 65 53 1.0 4.0 0.00 0.00 0.00 76 1014.2
20260510094831 65 42 0.0 3.0 0.00 0.00 0.00 77 1014.2
20260510093825 65 105 0.0 0.0 0.00 0.00 0.00 77 1014.3
20260510092813 65 33 2.0 6.0 0.00 0.00 0.00 77 1014.3
20260510092307 65 29 1.0 5.0 0.00 0.00 0.00 77 1014.2
20260510091304 65 53 1.0 7.0 0.00 0.00 0.00 78 1014.1
20260510090806 65 106 1.0 5.0 0.00 0.00 0.00 78 1014.2
20260510090303 65 26 2.0 6.0 0.00 0.00 0.00 78 1014.2
20260510085802 65 98 2.0 6.0 0.00 0.00 0.00 79 1014.4
20260510085306 65 22 1.0 6.0 0.00 0.00 0.00 79 1014.4
20260510083802 64 86 2.0 4.0 0.00 0.00 0.00 80 1014.4
20260510082806 64 113 2.0 6.0 0.00 0.00 0.00 80 1014.4
20260510082306 64 134 3.0 7.0 0.00 0.00 0.00 80 1014.4
20260510081803 64 109 3.0 7.0 0.00 0.00 0.00 80 1014.3
20260510080802 64 119 2.0 8.0 0.00 0.00 0.00 80 1014.1
20260510080302 64 84 2.0 7.0 0.00 0.00 0.00 80 1014.1
20260510075803 64 78 2.0 7.0 0.00 0.00 0.00 80 1014.1
20260510075306 64 17 1.0 7.0 0.00 0.00 0.00 80 1014.1
20260510074803 64 147 2.0 7.0 0.00 0.00 0.00 80 1014.1
20260510073300 63 92 2.0 7.0 0.00 0.00 0.00 81 1014.2
20260510072800 63 9 2.0 4.0 0.00 0.00 0.00 81 1014.2
20260510072259 62 25 1.0 4.0 0.00 0.00 0.00 82 1014.2
20260510071757 62 101 1.0 4.0 0.00 0.00 0.00 82 1014.2
20260510071300 62 36 2.0 6.0 0.00 0.00 0.00 82 1014.2
20260510070758 62 82 2.0 6.0 0.00 0.00 0.00 82 1014.2
20260510065755 62 40 2.0 6.0 0.00 0.00 0.00 82 1014.3
20260510065255 61 28 2.0 6.0 0.00 0.00 0.00 82 1014.2
20260510064755 61 82 1.0 6.0 0.00 0.00 0.00 82 1014.3
20260510064255 61 93 0.0 0.0 0.00 0.00 0.00 83 1014.3
20260510063756 61 42 0.0 0.0 0.00 0.00 0.00 82 1014.4
20260510063257 60 38 0.0 1.0 0.00 0.00 0.00 82 1014.5
20260510061746 60 36 0.0 0.0 0.00 0.00 0.00 82 1014.5
20260510061243 60 37 0.0 0.0 0.00 0.00 0.00 82 1014.5
20260510060743 60 34 0.0 0.0 0.00 0.00 0.00 82 1014.5
20260510060243 60 34 0.0 0.0 0.00 0.00 0.00 82 1014.6
20260510055744 60 34 0.0 0.0 0.00 0.00 0.00 82 1014.5
20260510055243 60 34 0.0 0.0 0.00 0.00 0.00 82 1014.4
20260510054745 60 34 0.0 2.0 0.00 0.00 0.00 82 1014.3
20260510054241 59 34 1.0 3.0 0.00 0.00 0.00 82 1014.3
20260510053741 59 32 1.0 3.0 0.00 0.00 0.00 82 1014.3
20260510053242 60 31 1.0 3.0 0.00 0.00 0.00 82 1014.2
20260510052235 60 82 0.0 0.0 0.00 0.00 0.00 82 1014.2
20260510051736 59 94 0.0 1.0 0.00 0.00 0.00 83 1014.1
20260510051235 59 115 0.0 1.0 0.00 0.00 0.00 83 1014.1
20260510050737 59 59 0.0 0.0 0.00 0.00 0.00 83 1014.0
20260510050235 59 5 0.0 0.0 0.00 0.00 0.00 83 1014.0
20260510045735 59 57 0.0 0.0 0.00 0.00 0.00 83 1014.1
20260510045235 58 10 0.0 3.0 0.00 0.00 0.00 82 1014.0
20260510044235 58 25 1.0 4.0 0.00 0.00 0.00 81 1014.2
20260510043231 58 73 0.0 4.0 0.00 0.00 0.00 81 1014.2
20260510042730 58 59 0.0 2.0 0.00 0.00 0.00 81 1014.3
20260510042231 58 117 0.0 0.0 0.00 0.00 0.00 81 1014.2
20260510041730 58 46 0.0 0.0 0.00 0.00 0.00 81 1014.2
20260510041230 58 94 0.0 0.0 0.00 0.00 0.00 81 1014.3
20260510040731 58 71 0.0 4.0 0.00 0.00 0.00 81 1014.3
20260510040230 58 41 0.0 4.0 0.00 0.00 0.00 81 1014.3
20260510035730 58 88 1.0 4.0 0.00 0.00 0.00 81 1014.4
20260510035233 58 101 1.0 4.0 0.00 0.00 0.00 81 1014.4
20260510034730 58 54 1.0 4.0 0.00 0.00 0.00 82 1014.4
20260510034229 58 87 0.0 5.0 0.00 0.00 0.00 83 1014.4
20260510033222 57 86 0.0 0.0 0.00 0.00 0.00 84 1014.5
20260510032716 57 58 0.0 0.0 0.00 0.00 0.00 84 1014.5
20260510032210 57 25 0.0 0.0 0.00 0.00 0.00 84 1014.5
20260510031159 57 25 0.0 0.0 0.00 0.00 0.00 85 1014.6
20260510030652 57 23 0.0 0.0 0.00 0.00 0.00 85 1014.6
20260510030147 58 17 0.0 0.0 0.00 0.00 0.00 85 1014.6
20260510025640 58 31 0.0 0.0 0.00 0.00 0.00 85 1014.6
20260510025141 58 40 0.0 0.0 0.00 0.00 0.00 85 1014.8
20260510024639 58 50 0.0 0.0 0.00 0.00 0.00 85 1014.9
20260510024141 58 50 0.0 0.0 0.00 0.00 0.00 84 1014.9
20260510023639 58 50 0.0 0.0 0.00 0.00 0.00 84 1015.0
20260510023136 58 50 0.0 0.0 0.00 0.00 0.00 84 1014.9
20260510022634 58 50 0.0 0.0 0.00 0.00 0.00 84 1015.0
20260510022134 58 50 0.0 0.0 0.00 0.00 0.00 84 1015.1
20260510021635 58 50 0.0 0.0 0.00 0.00 0.00 84 1015.2
20260510020630 59 50 0.0 0.0 0.00 0.00 0.00 83 1015.1
20260510015631 59 50 0.0 0.0 0.00 0.00 0.00 83 1015.1
20260510015130 59 50 0.0 0.0 0.00 0.00 0.00 83 1015.1
20260510014630 59 50 0.0 0.0 0.00 0.00 0.00 83 1015.1
20260510014131 59 50 0.0 0.0 0.00 0.00 0.00 82 1015.1
20260510013630 59 50 0.0 0.0 0.00 0.00 0.00 82 1015.2
20260510013131 59 50 0.0 0.0 0.00 0.00 0.00 82 1015.1
20260510012629 59 50 0.0 0.0 0.00 0.00 0.00 82 1015.2
20260510011634 59 51 0.0 0.0 0.00 0.00 0.00 81 1015.2
20260510011130 59 51 0.0 0.0 0.00 0.00 0.00 81 1015.2
20260510010631 59 49 0.0 0.0 0.00 0.00 0.00 81 1015.3
20260510010130 59 31 0.0 0.0 0.00 0.00 0.00 80 1015.3
20260510005631 60 36 0.0 3.0 0.00 0.00 0.00 80 1015.3
20260510005131 60 42 0.0 3.0 0.00 0.00 0.00 79 1015.3
20260510004630 60 31 0.0 1.0 0.00 0.00 0.00 78 1015.3
20260510004130 60 39 0.0 0.0 0.00 0.00 0.00 78 1015.4
20260510003630 60 35 0.0 0.0 0.00 0.00 0.00 78 1015.4
20260510003130 60 35 0.0 0.0 0.00 0.00 0.00 78 1015.4
20260510002632 60 36 0.0 0.0 0.00 0.00 0.00 77 1015.5
20260510002130 60 36 0.0 0.0 0.00 0.00 0.00 77 1015.6
20260510001630 60 36 0.0 0.0 0.00 0.00 0.00 77 1015.5
20260510001131 60 36 0.0 0.0 0.00 0.00 0.00 77 1015.4
20260510000631 60 36 0.0 0.0 0.00 0.00 0.00 77 1015.5
20260510000131 60 36 0.0 0.0 0.00 0.00 0.00 76 1015.5
20260509235130 60 36 0.0 0.0 0.00 0.00 0.00 76 1015.6
20260509234626 60 36 0.0 0.0 0.00 0.00 0.00 76 1015.6
20260509234124 60 36 0.0 0.0 0.00 0.00 0.00 76 1015.6
20260509233624 61 36 0.0 0.0 0.00 0.00 0.00 75 1015.7
20260509233122 61 36 0.0 0.0 0.00 0.00 0.00 75 1015.8
20260509232622 61 36 0.0 0.0 0.00 0.00 0.00 74 1015.7
20260509232120 61 36 0.0 0.0 0.00 0.00 0.00 74 1015.8
20260509231618 61 36 0.0 0.0 0.00 0.00 0.00 74 1015.8
20260509231118 61 36 0.0 0.0 0.00 0.00 0.00 73 1015.8
20260509230621 61 36 0.0 0.0 0.00 0.00 0.00 73 1015.9
20260509225614 61 36 0.0 0.0 0.00 0.00 0.00 72 1015.8